| time (UTC) | temp F | wind direction | speed MPH | gust MPH | rain 1hr in | rain 24hr in | rain mn in | humidity % | barometer mb |
| 20260906001705 | 69 | 13 | 3.0 | 6.0 | 0.00 | 0.20 | 0.00 | 63 | 1017.1 |
| 20260906001204 | 69 | 314 | 3.0 | 8.0 | 0.00 | 0.20 | 0.00 | 65 | 1017.0 |
| 20260906000705 | 70 | 295 | 5.0 | 8.0 | 0.00 | 0.20 | 0.00 | 64 | 1016.9 |
| 20260906000205 | 70 | 21 | 2.0 | 6.0 | 0.00 | 0.20 | 0.00 | 65 | 1017.0 |
| 20260905235704 | 69 | 340 | 3.0 | 8.0 | 0.00 | 0.20 | 0.00 | 64 | 1016.9 |
| 20260905235204 | 70 | 351 | 5.0 | 8.0 | 0.00 | 0.20 | 0.00 | 64 | 1016.9 |
| 20260905234705 | 70 | 18 | 5.0 | 8.0 | 0.00 | 0.20 | 0.00 | 65 | 1016.9 |
| 20260905234203 | 69 | 20 | 3.0 | 8.0 | 0.00 | 0.20 | 0.00 | 65 | 1016.9 |
| 20260905233203 | 70 | 24 | 3.0 | 7.0 | 0.00 | 0.20 | 0.00 | 65 | 1016.9 |
| 20260905232703 | 70 | 353 | 6.0 | 9.0 | 0.00 | 0.20 | 0.00 | 66 | 1016.9 |
| 20260905232204 | 70 | 17 | 4.0 | 9.0 | 0.00 | 0.20 | 0.00 | 66 | 1016.8 |
| 20260905231704 | 69 | 20 | 5.0 | 9.0 | 0.00 | 0.20 | 0.00 | 66 | 1016.8 |
| 20260905231205 | 69 | 25 | 5.0 | 9.0 | 0.00 | 0.20 | 0.00 | 66 | 1016.9 |
| 20260905230203 | 70 | 39 | 4.0 | 8.0 | 0.00 | 0.20 | 0.00 | 67 | 1016.9 |
| 20260905225704 | 70 | 56 | 6.0 | 10.0 | 0.00 | 0.20 | 0.00 | 66 | 1016.9 |
| 20260905225204 | 70 | 85 | 3.0 | 8.0 | 0.00 | 0.20 | 0.00 | 67 | 1016.9 |
| 20260905224703 | 70 | 39 | 6.0 | 9.0 | 0.00 | 0.20 | 0.00 | 68 | 1017.0 |
| 20260905224203 | 70 | 332 | 6.0 | 9.0 | 0.00 | 0.20 | 0.00 | 67 | 1017.0 |
| 20260905223204 | 69 | 66 | 2.0 | 9.0 | 0.00 | 0.20 | 0.00 | 67 | 1017.1 |
| 20260905221703 | 69 | 19 | 3.0 | 5.0 | 0.00 | 0.20 | 0.00 | 67 | 1017.1 |
| 20260905220705 | 69 | 53 | 4.0 | 6.0 | 0.00 | 0.20 | 0.00 | 68 | 1017.3 |
| 20260905215704 | 68 | 88 | 4.0 | 7.0 | 0.00 | 0.20 | 0.00 | 69 | 1017.4 |
| 20260905214704 | 68 | 17 | 2.0 | 7.0 | 0.00 | 0.20 | 0.00 | 71 | 1017.4 |
| 20260905214204 | 68 | 7 | 3.0 | 8.0 | 0.00 | 0.20 | 0.00 | 72 | 1017.5 |
| 20260905213705 | 67 | 28 | 5.0 | 10.0 | 0.00 | 0.20 | 0.00 | 73 | 1017.5 |
| 20260905212704 | 67 | 37 | 4.0 | 6.0 | 0.00 | 0.20 | 0.00 | 74 | 1017.6 |
| 20260905212204 | 67 | 43 | 5.0 | 8.0 | 0.00 | 0.20 | 0.00 | 75 | 1017.7 |
| 20260905211203 | 67 | 54 | 6.0 | 10.0 | 0.00 | 0.20 | 0.00 | 75 | 1017.7 |
| 20260905210704 | 67 | 56 | 3.0 | 7.0 | 0.00 | 0.20 | 0.00 | 77 | 1017.8 |
| 20260905205705 | 66 | 41 | 6.0 | 10.0 | 0.00 | 0.20 | 0.00 | 76 | 1017.9 |
| 20260905205206 | 66 | 59 | 6.0 | 10.0 | 0.00 | 0.20 | 0.00 | 76 | 1017.9 |
| 20260905204705 | 66 | 67 | 6.0 | 12.0 | 0.00 | 0.20 | 0.00 | 77 | 1017.8 |
| 20260905203705 | 66 | 345 | 5.0 | 10.0 | 0.00 | 0.20 | 0.00 | 76 | 1018.0 |
| 20260905203204 | 66 | 350 | 7.0 | 10.0 | 0.00 | 0.20 | 0.00 | 76 | 1018.0 |
| 20260905202703 | 66 | 21 | 5.0 | 12.0 | 0.00 | 0.20 | 0.00 | 76 | 1018.0 |
| 20260905202204 | 66 | 26 | 4.0 | 9.0 | 0.00 | 0.20 | 0.00 | 77 | 1017.9 |
| 20260905201705 | 66 | 332 | 4.0 | 10.0 | 0.00 | 0.20 | 0.00 | 77 | 1017.9 |
| 20260905201204 | 66 | 345 | 6.0 | 12.0 | 0.00 | 0.20 | 0.00 | 77 | 1017.9 |
| 20260905200705 | 66 | 28 | 5.0 | 10.0 | 0.00 | 0.20 | 0.00 | 77 | 1017.9 |
| 20260905200203 | 67 | 47 | 6.0 | 12.0 | 0.00 | 0.20 | 0.00 | 76 | 1017.9 |
| 20260905195204 | 66 | 31 | 6.0 | 10.0 | 0.00 | 0.20 | 0.00 | 76 | 1017.9 |
| 20260905194704 | 66 | 51 | 6.0 | 10.0 | 0.00 | 0.20 | 0.00 | 76 | 1017.9 |
| 20260905194204 | 67 | 39 | 6.0 | 10.0 | 0.00 | 0.20 | 0.00 | 75 | 1017.8 |
| 20260905193704 | 67 | 64 | 6.0 | 10.0 | 0.00 | 0.20 | 0.00 | 75 | 1017.8 |
| 20260905193203 | 67 | 15 | 4.0 | 12.0 | 0.00 | 0.20 | 0.00 | 77 | 1017.9 |
| 20260905192704 | 66 | 302 | 2.0 | 8.0 | 0.00 | 0.20 | 0.00 | 75 | 1018.0 |
| 20260905192204 | 66 | 42 | 3.0 | 5.0 | 0.00 | 0.20 | 0.00 | 75 | 1018.0 |
| 20260905191704 | 66 | 43 | 4.0 | 8.0 | 0.00 | 0.20 | 0.00 | 77 | 1018.1 |
| 20260905191205 | 65 | 314 | 2.0 | 8.0 | 0.00 | 0.20 | 0.00 | 77 | 1018.1 |
| 20260905190705 | 65 | 29 | 6.0 | 8.0 | 0.00 | 0.20 | 0.00 | 77 | 1018.2 |
| 20260905190203 | 65 | 26 | 5.0 | 9.0 | 0.00 | 0.20 | 0.00 | 77 | 1018.2 |
| 20260905185204 | 65 | 304 | 5.0 | 9.0 | 0.00 | 0.20 | 0.00 | 77 | 1018.2 |
| 20260905184704 | 66 | 310 | 3.0 | 13.0 | 0.00 | 0.20 | 0.00 | 77 | 1018.2 |
| 20260905184204 | 65 | 291 | 3.0 | 8.0 | 0.00 | 0.20 | 0.00 | 78 | 1018.3 |
| 20260905183704 | 65 | 30 | 3.0 | 10.0 | 0.00 | 0.20 | 0.00 | 78 | 1018.3 |
| 20260905183204 | 65 | 37 | 6.0 | 9.0 | 0.00 | 0.20 | 0.00 | 78 | 1018.4 |
| 20260905182703 | 65 | 1 | 5.0 | 8.0 | 0.00 | 0.20 | 0.00 | 78 | 1018.4 |
| 20260905182204 | 65 | 15 | 6.0 | 12.0 | 0.00 | 0.20 | 0.00 | 78 | 1018.4 |
| 20260905181703 | 65 | 15 | 6.0 | 9.0 | 0.00 | 0.20 | 0.00 | 79 | 1018.4 |
| 20260905181203 | 64 | 11 | 4.0 | 9.0 | 0.00 | 0.20 | 0.00 | 79 | 1018.4 |
| 20260905180704 | 65 | 8 | 6.0 | 9.0 | 0.00 | 0.20 | 0.00 | 78 | 1018.5 |
| 20260905180203 | 65 | 353 | 4.0 | 9.0 | 0.00 | 0.20 | 0.00 | 80 | 1018.5 |
| 20260905175704 | 64 | 12 | 4.0 | 8.0 | 0.00 | 0.20 | 0.00 | 79 | 1018.5 |
| 20260905175205 | 64 | 8 | 5.0 | 8.0 | 0.00 | 0.20 | 0.00 | 80 | 1018.5 |
| 20260905174703 | 64 | 236 | 1.0 | 3.0 | 0.00 | 0.20 | 0.00 | 79 | 1018.5 |
| 20260905174203 | 64 | 272 | 2.0 | 3.0 | 0.00 | 0.20 | 0.00 | 79 | 1018.5 |
| 20260905173704 | 64 | 307 | 2.0 | 3.0 | 0.00 | 0.20 | 0.00 | 79 | 1018.5 |
| 20260905173203 | 64 | 315 | 3.0 | 6.0 | 0.00 | 0.20 | 0.00 | 79 | 1018.4 |
| 20260905172704 | 64 | 287 | 3.0 | 6.0 | 0.00 | 0.20 | 0.00 | 80 | 1018.4 |
| 20260905172204 | 64 | 324 | 3.0 | 6.0 | 0.00 | 0.20 | 0.00 | 80 | 1018.4 |
| 20260905171704 | 64 | 312 | 3.0 | 7.0 | 0.00 | 0.20 | 0.00 | 82 | 1018.4 |
| 20260905171204 | 64 | 12 | 1.0 | 5.0 | 0.00 | 0.20 | 0.00 | 81 | 1018.5 |
| 20260905170704 | 64 | 324 | 3.0 | 6.0 | 0.00 | 0.20 | 0.00 | 82 | 1018.5 |
| 20260905170204 | 63 | 111 | 1.0 | 3.0 | 0.00 | 0.20 | 0.00 | 84 | 1018.4 |
| 20260905165704 | 63 | 302 | 3.0 | 5.0 | 0.00 | 0.20 | 0.00 | 85 | 1018.4 |
| 20260905165204 | 63 | 310 | 2.0 | 3.0 | 0.00 | 0.20 | 0.00 | 86 | 1018.3 |
| 20260905164703 | 62 | 349 | 2.0 | 5.0 | 0.00 | 0.20 | 0.00 | 86 | 1018.3 |
| 20260905164204 | 32 | 252 | 0.0 | 2.0 | 0.00 | 0.20 | 0.00 | 100 |